Location: Forli
(44.2227°N, 12.0407°E)
Time: 13:34:19
(UTC+02:00)

UWE-3 - Pass Details

Date: 25 April 2026
Orbit: 542 x 613 km, 97.9° (Epoch: 10 May)

Event Time Altitude Azimuth Distance (km) Brightness Sun altitude
Rises 04:10:18 0° 12° (NNE) 2,721 ? -19.5°
Reaches altitude 10° 04:12:26 10° 11° (NNE) 1,819 ? -19.2°
Maximum altitude 04:16:22 84° 284° (WNW) 551 ? -18.7°
Enters shadow 04:17:35 43° 201° (SSW) 770 ? -18.5°
